TimeEST,TemperatureF,Dew PointF,Humidity,Sea Level PressureIn,VisibilityMPH,Wind Direction,Wind SpeedMPH,Gust SpeedMPH,PrecipitationIn,Events,Conditions,WindDirDegrees,DateUTC
12:51 AM,23.0,6.1,48,30.24,10.0,Calm,Calm,-,N/A,,Clear,0,2014-03-05 05:51:00
1:51 AM,21.0,7.0,55,30.23,10.0,Calm,Calm,-,N/A,,Mostly Cloudy,0,2014-03-05 06:51:00
2:51 AM,21.0,8.1,57,30.21,10.0,Calm,Calm,-,N/A,,Overcast,0,2014-03-05 07:51:00
3:51 AM,21.9,9.0,58,30.21,10.0,Calm,Calm,-,N/A,,Overcast,0,2014-03-05 08:51:00
4:51 AM,21.9,10.0,60,30.23,10.0,Calm,Calm,-,N/A,,Overcast,0,2014-03-05 09:51:00
5:51 AM,21.9,12.0,66,30.24,10.0,Calm,Calm,-,N/A,,Overcast,0,2014-03-05 10:51:00
6:51 AM,21.9,10.0,60,30.25,10.0,Calm,Calm,-,N/A,,Scattered Clouds,0,2014-03-05 11:51:00
7:51 AM,21.9,6.1,51,30.25,10.0,Calm,Calm,-,N/A,,Clear,0,2014-03-05 12:51:00
8:51 AM,26.1,3.9,39,30.26,10.0,Calm,Calm,-,N/A,,Partly Cloudy,0,2014-03-05 13:51:00
9:51 AM,28.9,7.0,40,30.27,10.0,Calm,Calm,-,N/A,,Mostly Cloudy,0,2014-03-05 14:51:00
10:51 AM,32.0,6.1,34,30.26,10.0,Calm,Calm,-,N/A,,Overcast,0,2014-03-05 15:51:00
11:51 AM,34.0,7.0,32,30.25,10.0,Calm,Calm,-,N/A,,Overcast,0,2014-03-05 16:51:00
12:51 PM,35.1,8.1,33,30.23,10.0,Calm,Calm,-,N/A,,Overcast,0,2014-03-05 17:51:00
1:51 PM,35.1,8.1,33,30.24,10.0,Calm,Calm,-,N/A,,Overcast,0,2014-03-05 18:51:00
2:51 PM,37.0,8.1,30,30.23,10.0,Calm,Calm,-,N/A,,Overcast,0,2014-03-05 19:51:00
3:51 PM,35.1,12.0,39,30.25,10.0,North,11.5,-,N/A,,Overcast,350,2014-03-05 20:51:00
4:51 PM,34.0,10.9,38,30.28,10.0,NNW,15.0,-,N/A,,Overcast,340,2014-03-05 21:51:00
5:51 PM,30.9,12.0,46,30.31,10.0,NNW,10.4,-,N/A,,Clear,340,2014-03-05 22:51:00
6:51 PM,30.0,12.9,49,30.35,10.0,North,13.8,-,N/A,,Mostly Cloudy,350,2014-03-05 23:51:00
7:51 PM,27.0,12.0,53,30.39,10.0,North,11.5,-,N/A,,Clear,360,2014-03-06 00:51:00
8:51 PM,26.1,10.0,51,30.43,10.0,North,12.7,-,N/A,,Clear,350,2014-03-06 01:51:00
9:51 PM,24.1,10.0,55,30.45,10.0,North,9.2,-,N/A,,Clear,360,2014-03-06 02:51:00
10:51 PM,21.9,9.0,58,30.47,10.0,North,10.4,-,N/A,,Clear,10,2014-03-06 03:51:00
11:51 PM,19.9,8.1,60,30.47,10.0,North,8.1,-,N/A,,Clear,360,2014-03-06 04:51:00